Welcome to the New NWS' Forecast!
Most changes are behind the scenes, but click here for differences you might notice.

Regional Weather Roundup (RWR)

Issued by National Weather Service (NWS)

                            
445 
ASUS46 KSEW 150710
RWRWA 

WASHINGTON REGIONAL WEATHER ROUNDUP
NATIONAL WEATHER SERVICE SEATTLE WA
1200 AM PDT SUN JUL 15 2018

NOTE:"FAIR" INDICATES FEW OR NO CLOUDS BELOW 12,000 FEET WITH NO 
SIGNIFICANT WEATHER AND/OR OBSTRUCTIONS TO VISIBILITY.

WAZ507-509-555>559-150800-
SEATTLE, TACOMA, EVERETT, AND VICINITY
  
CITY           SKY/WX    TMP DP  RH WIND       PRES   REMARKS
EVERETT        CLEAR     65  50  58 N6        30.07S                  
BOEING FIELD   CLEAR     73  51  46 CALM      30.03S                  
RENTON         CLEAR     72  59  63 N3        30.02F                  
SEATAC AIRPORT CLEAR     75  50  41 N9        30.04F                  
JBLM-MCCHORD   CLEAR     71  54  55 CALM      30.04S                  
PUYALLUP       FAIR      63  57  82 CALM      30.05S                  
BREMERTON      CLEAR     67  47  48 E5        30.04F                  
JBLM-FT LEWIS  CLEAR     67  52  59 SE5       30.03S                  
TACOMA NARROWS CLEAR     72  47  40 NE6       30.03S                  
$$
 
WAZ001-503-506-510-514-515-150800-
NORTH INTERIOR
  
CITY           SKY/WX    TMP DP  RH WIND       PRES   REMARKS
BELLINGHAM     CLEAR     60  54  80 CALM      30.03F                  
FRIDAY HARBOR  CLEAR     59  47  64 CALM      30.05S                  
EASTSOUND      CLEAR     63  52  67 VRB3      30.03S                  
PORT ANGELES   CLEAR     58  46  64 W6        30.06F                  
EDIZ HOOK      FAIR      55  49  80 W5        30.05S                  
PORT TOWNSEND  FAIR      55  50  82 CALM      30.05S                  
NAS WHIDBEY    CLEAR     57  50  77 E5        30.09S                  
ARLINGTON      CLEAR     62  52  69 N5        30.05F                  
BURLINGTON     CLEAR     61  54  77 CALM      30.05S                  
$$
 
WAZ020-022-039-040-504-511-512-150800-
SOUTHWEST INTERIOR
  
CITY           SKY/WX    TMP DP  RH WIND       PRES   REMARKS
SHELTON        CLEAR     61  53  75 CALM      30.02S                  
OLYMPIA        PTCLDY    63  50  62 CALM      30.04R                  
CHEHALIS       FAIR      68  52  56 CALM      30.03S                  
KELSO          PTCLDY    69  59  70 N3        30.02S                  
VANCOUVER      CLEAR     77  56  48 NW6       29.97S                  
SCAPPOOSE, OR  CLEAR     76  53  44 NW6       29.97S                  
PORTLAND, OR   CLEAR     76  56  49 NW6       29.98S                  
$$
 
WAZ021-516-517-150800-
WASHINGTON COAST
  
CITY           SKY/WX    TMP DP  RH WIND       PRES   REMARKS
FORKS          CLEAR     61  50  67 E5        30.04F                  
HOQUIAM        CLEAR     62  56  80 CALM      30.04S                  
ASTORIA, OR    CLEAR     57  56  96 S3        30.03F                  
$$
 
WAZ019-023-024-040-567>569-150800-
CASCADE MOUNTAINS AND COLUMBIA GORGE
  
CITY           SKY/WX    TMP DP  RH WIND       PRES   REMARKS
STAMPEDE PASS  CLEAR     67  50  54 CALM      30.20F                  
TROUTDALE, OR  CLEAR     71  60  68 E3        29.98R                  
HOOD RIVER, OR SUNNY     68  54  60 S5        30.01R                  
THE DALLES, OR CLEAR     75  54  47 NW7       29.97R                  
$$

WAZ026-027-041>044-520-521-150800-
EAST SLOPES
  
CITY           SKY/WX    TMP DP  RH WIND       PRES   REMARKS
OMAK           CLEAR     68  37  32 NW12      30.09R                  
WENATCHEE      CLEAR     76  36  23 NW5       30.05R                  
ELLENSBURG     CLEAR     67  44  43 N7        30.07S                  
YAKIMA         PTCLDY    68  48  48 W7        30.04R                  
SUNNYSIDE ARPT SUNNY     60  53  76 NE5       30.01S                  
YAKIMA TC        N/A     67  35  29 CALM      30.03S                  
$$

WAZ028-034-035-150800-
COLUMBIA BASIN
  
CITY           SKY/WX    TMP DP  RH WIND       PRES   REMARKS
EPHRATA        CLEAR     76  21  12 NW12      30.03S                  
MOSES LAKE     CLEAR     69  21  16 N6        30.04S                  
PASCO          PTCLDY    62  53  72 N6        29.99R                  
RICHLAND ARPT  SUNNY     70  49  46 N3        29.98F                  
HERMISTON, OR  CLEAR     68  43  40 S5        29.99R                  
$$

WAZ036>038-150800-
NORTHEAST WASHINGTON
  
CITY           SKY/WX    TMP DP  RH WIND       PRES   REMARKS
SPOKANE GEIGER CLEAR     67  35  30 CALM      30.09S                  
SPOKANE FELTS  CLEAR     62  34  35 NE3       30.08R                  
FAIRCHILD AFB  NOT AVBL                                               
COEURDALENE,ID CLEAR     64  43  46 CALM      30.10R                  
DEER PARK      CLEAR     52  34  50 CALM      30.09R                  
$$

WAZ029>033-150800-
SOUTHEAST WASHINGTON
  
CITY           SKY/WX    TMP DP  RH WIND       PRES   REMARKS
PULLMAN        CLEAR     56  43  61 CALM      30.11S                  
LEWISTON, ID   CLEAR     74  40  29 SE3       30.04R                  
WALLA WALLA    CLEAR     74  42  31 SE8       30.02S                  
PENDLETON, OR  CLEAR     66  37  34 E8        30.03F                  
$$